Погода в Старом Селе

Россия / Смоленская область     55°19′16″N   33°48′45″E
темп.,
°C
ветер,
м/с
пор.,
м/с
влажн.,
%
обл.,
%
осадки,
мм/ч
давл.,
гПа
погр.,
м
11 апреля, вс
вс1100:00+4ююз413715 0.0 1023366
03:00+3ююз3127691 0.0 1025307
06:00+2ю27865 0.0 1026136
09:00+7юз36665 0.0 1027298
12:00+12ююз46525 0.0 1027783
15:00+15ююз45465 0.0 10281392
18:00+13ююз25540 0.0 1028226
21:00+8ююв22722 0.0 103041
12 апреля, пн
пн1200:00+7ююв23760 0.0 103149
03:00+5юв23800 0.0 103261
06:00+4вюв25830 0.0 103280
09:00+9вюв49610 0.0 1031416
12:00+13вюв48427 0.0 10291004
15:00+14вюв5740100 0.0 10271101
18:00+11юв4865100 0.0 1026874
21:00+10юв31085100 0.4 1026481
13 апреля, вт
вт1300:00+8юв3993100 0.0 1025235
03:00+7юв2296100 0.0 102430
06:00+7юв2295100 0.0 102426
09:00+11юв237990 0.0 1023225
12:00+16юв2360100 0.0 1022605
15:00+18ю3552100 0.0 10211021
18:00+16ююв2565100 0.0 1020203
21:00+13ююв31177100 0.0 1021276
14 апреля, ср
ср1400:00+11юв2781100 0.0 1020136
03:00+9юв398388 0.0 1020163
06:00+8юв2783100 0.0 1019131
09:00+12ююв41270100 0.0 1019528
12:00+16ю4759100 0.0 10181030
15:00+15ю3666100 0.8 1018547
18:00+14ююз2572100 0.9 1017320
21:00+12в1183100 1.2 101810
15 апреля, чт
чт1500:00+11в2589100 0.3 101799
03:00+9св1181100 0.3 101711
06:00+9всв1187100 0.1 101717
09:00+10св4686100 0.2 1018422
12:00+12св457178 0.0 1017652
15:00+14св566494 0.1 10171036
18:00+9ссв61180100 0.1 1018607
21:00+6ссв61384100 0.0 1019626